GW6787 Weather Reports


Display with metric or nautical units.
time (UTC)temp
F
wind
direction
speed
MPH
gust
MPH
rain 1hr
in
rain 24hr
in
rain mn
in
humidity
%
barometer
mb
20260506073503 50 328 1.0 3.0 0.00 0.00 0.00 86 1011.9
20260506073010 49 24 1.0 3.0 0.00 0.00 0.00 86 1011.8
20260506072508 49 343 0.0 4.0 0.00 0.00 0.00 86 1011.8
20260506072005 49 360 1.0 4.0 0.00 0.00 0.00 86 1011.9
20260506071516 49 334 1.0 4.0 0.00 0.00 0.00 86 1011.8
20260506071005 49 314 1.0 3.0 0.00 0.00 0.00 86 1011.8
20260506070505 49 325 1.0 6.0 0.00 0.00 0.00 86 1011.8
20260506062503 48 322 2.0 5.0 0.00 0.00 0.00 85 1011.6
20260506062005 48 276 2.0 7.0 0.00 0.00 0.00 85 1011.6
20260506061510 48 5 2.0 8.0 0.00 0.00 0.00 85 1011.5
20260506061008 48 337 2.0 8.0 0.00 0.00 0.00 86 1011.5
20260506060507 48 308 3.0 5.0 0.00 0.00 0.00 87 1011.5
20260506051004 47 274 1.0 4.0 0.00 0.00 0.00 86 1011.4
20260506050506 47 312 1.0 5.0 0.00 0.00 0.00 86 1011.4
20260506045006 47 304 1.0 5.0 0.00 0.00 0.00 86 1011.4
20260506044524 47 337 2.0 5.0 0.00 0.00 0.00 86 1011.4
20260506044013 47 335 2.0 4.0 0.00 0.00 0.00 86 1011.5
20260506043510 47 309 1.0 6.0 0.00 0.00 0.00 86 1011.4
20260506043020 47 297 2.0 5.0 0.00 0.00 0.00 85 1011.4
20260506042508 47 311 1.0 5.0 0.00 0.00 0.00 85 1011.4
20260506042019 47 341 1.0 2.0 0.00 0.00 0.00 85 1011.4
20260506041524 47 321 1.0 5.0 0.00 0.00 0.00 85 1011.4
20260506041007 47 338 1.0 5.0 0.00 0.00 0.00 85 1011.4
20260506040515 47 337 1.0 4.0 0.00 0.00 0.00 85 1011.4
20260506040030 48 329 2.0 4.0 0.00 0.00 0.00 85 1011.5
20260506035503 48 322 1.0 3.0 0.00 0.00 0.00 85 1011.5
20260506035006 48 343 1.0 4.0 0.00 0.00 0.00 85 1011.5
20260506034518 48 348 2.0 8.0 0.00 0.00 0.00 85 1011.6
20260506034008 48 326 2.0 8.0 0.00 0.00 0.00 85 1011.6
20260506033507 48 325 2.0 8.0 0.00 0.00 0.00 85 1011.6
20260506033029 48 306 3.0 5.0 0.00 0.00 0.00 85 1011.7
20260506032508 48 30 1.0 5.0 0.00 0.00 0.00 85 1011.7
20260506032007 48 40 2.0 9.0 0.00 0.00 0.00 85 1011.8
20260506031526 48 351 3.0 9.0 0.00 0.00 0.00 84 1011.9
20260506031009 48 298 2.0 4.0 0.00 0.00 0.00 84 1011.9
20260506030513 48 340 3.0 4.0 0.00 0.00 0.00 84 1012.0
20260506030026 48 317 2.0 5.0 0.00 0.00 0.00 84 1012.0
20260506025508 48 319 2.0 6.0 0.00 0.00 0.00 84 1011.9
20260506025010 48 310 2.0 6.0 0.00 0.00 0.00 84 1012.1
20260506024520 48 314 1.0 4.0 0.00 0.00 0.00 84 1012.1
20260506024004 48 304 1.0 4.0 0.00 0.00 0.00 85 1012.1
20260506023505 48 291 2.0 6.0 0.00 0.00 0.00 85 1012.1
20260506023021 48 308 1.0 6.0 0.00 0.00 0.00 85 1012.1
20260506022508 48 295 2.0 4.0 0.00 0.00 0.00 85 1012.1
20260506022009 48 311 1.0 8.0 0.00 0.00 0.00 85 1012.0
20260506021526 48 295 1.0 8.0 0.00 0.00 0.00 85 1012.0
20260506021008 48 300 3.0 7.0 0.00 0.00 0.00 85 1012.0
20260506020505 49 360 2.0 7.0 0.00 0.00 0.00 85 1012.0
20260506020013 49 315 2.0 6.0 0.00 0.00 0.00 85 1012.0
20260506015504 49 327 2.0 7.0 0.00 0.00 0.00 85 1012.0
20260506015005 49 360 2.0 7.0 0.00 0.00 0.00 85 1012.1
20260506014516 49 292 2.0 7.0 0.00 0.00 0.00 85 1012.1
20260506014003 49 321 2.0 5.0 0.00 0.00 0.00 85 1012.1
20260506013503 49 314 2.0 5.0 0.00 0.00 0.00 85 1012.2
20260506013026 49 342 1.0 4.0 0.00 0.00 0.00 85 1012.3
20260506012506 49 316 2.0 5.0 0.00 0.00 0.00 85 1012.3
20260506012008 49 5 2.0 5.0 0.00 0.00 0.00 85 1012.3
20260506011523 49 30 2.0 5.0 0.00 0.00 0.00 85 1012.4
20260506011004 49 317 2.0 5.0 0.00 0.00 0.00 85 1012.3
20260506010502 49 346 2.0 4.0 0.00 0.00 0.00 85 1012.3
20260506010007 49 303 1.0 4.0 0.00 0.00 0.00 85 1012.3
20260506005502 49 312 2.0 6.0 0.00 0.00 0.00 85 1012.4
20260506005005 49 360 2.0 6.0 0.00 0.00 0.00 85 1012.4
20260506004518 49 26 2.0 5.0 0.00 0.00 0.00 85 1012.4
20260506004003 49 302 2.0 6.0 0.00 0.00 0.00 85 1012.5
20260506003504 49 302 3.0 6.0 0.00 0.00 0.00 86 1012.5
20260506003013 49 306 2.0 5.0 0.00 0.00 0.00 86 1012.6
20260506002506 49 320 1.0 5.0 0.00 0.00 0.00 86 1012.5
20260506002009 49 331 2.0 5.0 0.00 0.00 0.00 86 1012.5
20260506001512 49 350 1.0 4.0 0.00 0.00 0.00 86 1012.6
20260506001004 49 311 1.0 5.0 0.00 0.00 0.00 86 1012.7
20260506000507 49 327 1.0 5.0 0.00 0.00 0.00 86 1012.7
20260506000014 49 301 1.0 4.0 0.00 0.00 0.00 86 1012.7
20260505235506 49 319 2.0 4.0 0.00 0.00 0.00 86 1012.8
20260505235004 49 311 1.0 4.0 0.00 0.00 0.00 86 1012.8
20260505234516 49 304 1.0 4.0 0.00 0.00 0.00 86 1012.9
20260505234002 49 312 2.0 4.0 0.00 0.00 0.00 85 1012.8
20260505233506 49 311 1.0 3.0 0.00 0.00 0.00 85 1012.9
20260505233015 49 327 1.0 4.0 0.00 0.00 0.00 85 1013.0
20260505232503 49 343 1.0 4.0 0.00 0.00 0.00 85 1013.0
20260505232003 49 335 1.0 3.0 0.00 0.00 0.00 85 1013.0
20260505231520 49 338 1.0 5.0 0.00 0.00 0.00 85 1013.1
20260505231007 49 360 2.0 5.0 0.00 0.00 0.00 85 1013.1
20260505230502 49 352 1.0 3.0 0.00 0.00 0.00 85 1013.2
20260505230016 49 324 1.0 4.0 0.00 0.00 0.00 84 1013.2
20260505225507 49 320 1.0 4.0 0.00 0.00 0.00 84 1013.2
20260505225010 49 312 1.0 5.0 0.00 0.00 0.00 84 1013.2
20260505224512 49 352 1.0 5.0 0.00 0.00 0.00 84 1013.3
20260505224007 49 279 1.0 4.0 0.00 0.00 0.00 84 1013.3
20260505223505 49 325 0.0 3.0 0.00 0.00 0.00 84 1013.3
20260505223010 49 346 1.0 4.0 0.00 0.00 0.00 83 1013.3
20260505222502 49 312 1.0 4.0 0.00 0.00 0.00 83 1013.2
20260505222006 50 303 1.0 4.0 0.00 0.00 0.00 83 1013.2
20260505221518 50 11 1.0 4.0 0.00 0.00 0.00 82 1013.3
20260505221002 50 329 1.0 4.0 0.00 0.00 0.00 82 1013.2
20260505220505 50 316 2.0 5.0 0.00 0.00 0.00 82 1013.2
20260505220035 50 336 2.0 5.0 0.00 0.00 0.00 81 1013.2
20260505215505 50 5 1.0 5.0 0.00 0.00 0.00 80 1013.3
20260505215009 50 53 2.0 5.0 0.00 0.00 0.00 80 1013.3
20260505214536 50 337 1.0 4.0 0.00 0.00 0.00 80 1013.3
20260505214012 50 336 0.0 5.0 0.00 0.00 0.00 80 1013.3
20260505213504 50 18 1.0 5.0 0.00 0.00 0.00 80 1013.3
20260505213033 50 27 1.0 3.0 0.00 0.00 0.00 80 1013.3
20260505212504 50 311 1.0 5.0 0.00 0.00 0.00 80 1013.3
20260505212003 49 333 2.0 5.0 0.00 0.00 0.00 80 1013.3
20260505211516 49 344 2.0 4.0 0.00 0.00 0.00 80 1013.3
20260505211007 49 360 1.0 4.0 0.00 0.00 0.00 81 1013.3
20260505210503 49 327 1.0 4.0 0.00 0.00 0.00 81 1013.3
20260505210016 49 316 1.0 3.0 0.00 0.00 0.00 82 1013.3
20260505205515 49 308 1.0 4.0 0.00 0.00 0.00 82 1013.3
20260505205013 49 29 1.0 5.0 0.00 0.00 0.00 82 1013.4
20260505204531 50 327 2.0 5.0 0.00 0.00 0.00 82 1013.4
20260505204003 50 317 1.0 4.0 0.00 0.00 0.00 83 1013.4
20260505203507 50 338 1.0 5.0 0.00 0.00 0.00 83 1013.4
20260505203025 50 340 1.0 5.0 0.00 0.00 0.00 83 1013.4
20260505202503 50 334 1.0 6.0 0.00 0.00 0.00 83 1013.4
20260505202009 50 348 2.0 6.0 0.00 0.00 0.00 83 1013.3
20260505201541 50 360 1.0 4.0 0.00 0.00 0.00 82 1013.3
20260505201003 50 340 2.0 5.0 0.00 0.00 0.00 82 1013.4
20260505200506 50 337 2.0 5.0 0.00 0.00 0.00 82 1013.3
20260505200014 50 15 1.0 4.0 0.00 0.00 0.00 81 1013.3
20260505195503 50 338 2.0 5.0 0.00 0.00 0.00 82 1013.2
20260505195005 50 5 2.0 5.0 0.00 0.00 0.00 81 1013.2
20260505194520 51 332 2.0 5.0 0.00 0.00 0.00 81 1013.1
20260505194016 51 346 2.0 5.0 0.00 0.00 0.00 81 1013.1
20260505193507 51 352 2.0 6.0 0.00 0.00 0.00 80 1013.0
20260505193035 51 329 2.0 6.0 0.00 0.00 0.00 80 1013.0
20260505192507 51 335 3.0 6.0 0.00 0.00 0.00 81 1013.0
20260505192010 51 302 1.0 3.0 0.00 0.00 0.00 80 1012.9
20260505191526 51 84 1.0 5.0 0.00 0.00 0.00 80 1012.9
20260505191006 51 313 1.0 6.0 0.00 0.00 0.00 80 1012.9
20260505190510 51 21 2.0 8.0 0.00 0.00 0.00 80 1012.9
20260505190032 52 294 2.0 5.0 0.00 0.00 0.00 80 1012.9
20260505185506 52 352 0.0 8.0 0.00 0.00 0.00 79 1012.8
20260505185006 52 15 1.0 8.0 0.00 0.00 0.00 79 1012.9
20260505184524 52 360 2.0 5.0 0.00 0.00 0.00 78 1012.8
20260505184007 52 326 1.0 6.0 0.00 0.00 0.00 79 1012.8
20260505183507 52 68 1.0 6.0 0.00 0.00 0.00 79 1012.8
20260505183039 52 352 1.0 4.0 0.00 0.00 0.00 79 1012.8
20260505182505 52 332 0.0 4.0 0.00 0.00 0.00 78 1012.8
20260505182010 52 342 1.0 5.0 0.00 0.00 0.00 78 1012.7
20260505181522 52 352 2.0 8.0 0.00 0.00 0.00 78 1012.9
20260505181011 52 44 2.0 9.0 0.00 0.00 0.00 78 1012.9
20260505180511 52 330 2.0 9.0 0.00 0.00 0.00 78 1012.9
20260505180031 52 85 1.0 8.0 0.00 0.00 0.00 77 1012.9
20260505175507 52 140 1.0 8.0 0.00 0.00 0.00 77 1012.8
20260505175013 52 61 2.0 5.0 0.00 0.00 0.00 77 1012.8
20260505174536 53 61 1.0 6.0 0.00 0.00 0.00 77 1012.8
20260505174007 53 15 2.0 5.0 0.00 0.00 0.00 76 1012.9
20260505173503 53 299 2.0 4.0 0.00 0.00 0.00 76 1012.8
20260505173011 53 31 2.0 8.0 0.00 0.00 0.00 75 1012.9
20260505172503 53 55 2.0 8.0 0.00 0.00 0.00 75 1012.9
20260505172000 54 82 3.0 9.0 0.00 0.00 0.00 73 1012.9
20260505171506 54 63 2.0 9.0 0.00 0.00 0.00 72 1012.9
20260505171002 55 100 2.0 7.0 0.00 0.00 0.00 71 1013.0
20260505170501 55 36 2.0 7.0 0.00 0.00 0.00 71 1012.9
20260505170011 56 5 2.0 6.0 0.00 0.00 0.00 70 1012.9
20260505165502 56 128 2.0 8.0 0.00 0.00 0.00 70 1012.9
20260505165002 56 61 2.0 8.0 0.00 0.00 0.00 70 1012.9
20260505164502 56 80 1.0 6.0 0.00 0.00 0.00 69 1012.9
20260505164004 55 11 1.0 8.0 0.00 0.00 0.00 69 1012.9
20260505163507 55 104 2.0 8.0 0.00 0.00 0.00 67 1012.9
20260505163022 56 55 3.0 8.0 0.00 0.00 0.00 69 1012.9
20260505162503 56 33 1.0 8.0 0.00 0.00 0.00 69 1012.8
20260505162006 56 101 2.0 8.0 0.00 0.00 0.00 69 1012.8
20260505161516 56 42 3.0 7.0 0.00 0.00 0.00 68 1012.8
20260505161003 56 10 1.0 7.0 0.00 0.00 0.00 69 1012.8
20260505160504 56 32 3.0 5.0 0.00 0.00 0.00 70 1012.8
20260505153008 56 37 2.0 10.0 0.00 0.00 0.00 69 1012.9
20260505152505 56 126 2.0 9.0 0.00 0.00 0.00 68 1013.0
20260505152011 56 112 3.0 8.0 0.00 0.00 0.00 69 1013.0
20260505151504 56 53 2.0 8.0 0.00 0.00 0.00 69 1013.0
20260505151007 56 93 3.0 9.0 0.00 0.00 0.00 70 1013.0
20260505150504 55 132 2.0 10.0 0.00 0.00 0.00 73 1013.0
20260505140507 57 119 3.0 8.0 0.00 0.00 0.00 68 1013.2
20260505125006 57 84 3.0 8.0 0.00 0.00 0.00 68 1013.4
20260505124520 57 74 3.0 8.0 0.00 0.00 0.00 69 1013.4
20260505124011 57 161 3.0 9.0 0.00 0.00 0.00 70 1013.4
20260505123502 57 142 4.0 9.0 0.00 0.00 0.00 71 1013.4
20260505123007 57 111 3.0 9.0 0.00 0.00 0.00 70 1013.3
20260505122502 57 59 3.0 9.0 0.00 0.00 0.00 71 1013.3
20260505122004 57 142 3.0 9.0 0.00 0.00 0.00 69 1013.4
20260505121512 57 80 3.0 9.0 0.00 0.00 0.00 69 1013.4
20260505121005 57 96 2.0 9.0 0.00 0.00 0.00 70 1013.4
20260505120509 57 73 3.0 10.0 0.00 0.00 0.00 70 1013.3
20260505120008 57 62 3.0 10.0 0.00 0.00 0.00 68 1013.3
20260505115505 57 13 3.0 10.0 0.00 0.00 0.00 68 1013.3
20260505115007 58 59 4.0 10.0 0.00 0.00 0.00 67 1013.3
20260505114530 58 38 3.0 9.0 0.00 0.00 0.00 67 1013.3
20260505114006 58 97 2.0 6.0 0.00 0.00 0.00 68 1013.3
20260505113507 57 129 2.0 10.0 0.00 0.00 0.00 65 1013.3
20260505113023 58 78 2.0 10.0 0.00 0.00 0.00 67 1013.4
20260505112502 58 61 2.0 7.0 0.00 0.00 0.00 66 1013.4
20260505112004 58 76 2.0 8.0 0.00 0.00 0.00 64 1013.5
20260505111516 58 172 3.0 8.0 0.00 0.00 0.00 62 1013.5
20260505111004 58 69 2.0 6.0 0.00 0.00 0.00 63 1013.5
20260505110503 58 37 2.0 6.0 0.00 0.00 0.00 60 1013.5
20260505102009 57 40 2.0 8.0 0.00 0.00 0.00 64 1013.7
20260505101526 57 335 1.0 8.0 0.00 0.00 0.00 64 1013.7
20260505101006 57 57 3.0 7.0 0.00 0.00 0.00 66 1013.6
20260505100507 57 112 2.0 6.0 0.00 0.00 0.00 67 1013.6
20260505100012 57 24 2.0 7.0 0.00 0.00 0.00 67 1013.6
20260505095504 57 15 2.0 7.0 0.00 0.00 0.00 67 1013.7
20260505095004 57 329 2.0 6.0 0.00 0.00 0.00 67 1013.6
20260505094518 56 64 2.0 8.0 0.00 0.00 0.00 68 1013.6
20260505094008 56 103 1.0 8.0 0.00 0.00 0.00 69 1013.6
20260505093509 56 34 2.0 9.0 0.00 0.00 0.00 67 1013.6
20260505093024 56 79 2.0 9.0 0.00 0.00 0.00 69 1013.6
20260505092507 56 23 2.0 8.0 0.00 0.00 0.00 67 1013.6
20260505092007 56 37 3.0 8.0 0.00 0.00 0.00 68 1013.6
20260505091528 56 42 3.0 9.0 0.00 0.00 0.00 67 1013.6
20260505091009 56 5 3.0 9.0 0.00 0.00 0.00 65 1013.7
20260505090507 57 68 1.0 5.0 0.00 0.00 0.00 68 1013.7
20260505090033 56 9 1.0 5.0 0.00 0.00 0.00 69 1013.6
20260505085508 56 360 2.0 6.0 0.00 0.00 0.00 68 1013.6
20260505085007 56 333 2.0 8.0 0.00 0.00 0.00 68 1013.6
20260505084517 56 21 1.0 8.0 0.00 0.00 0.00 67 1013.6
20260505084012 56 92 3.0 7.0 0.00 0.00 0.00 68 1013.5
20260505083502 56 16 2.0 6.0 0.00 0.00 0.00 68 1013.6
20260505083007 56 39 1.0 6.0 0.00 0.00 0.00 69 1013.5
20260505082501 55 352 2.0 7.0 0.00 0.00 0.00 69 1013.6
20260505082003 55 32 2.0 7.0 0.00 0.00 0.00 68 1013.6
20260505081504 55 65 1.0 5.0 0.00 0.00 0.00 70 1013.6
20260505081004 55 34 2.0 5.0 0.00 0.00 0.00 70 1013.7
20260505080503 55 342 2.0 6.0 0.00 0.00 0.00 70 1013.8